EW6193 Weather Reports


Display with metric or nautical units.
time (UTC)temp
F
wind
direction
speed
MPH
gust
MPH
rain 1hr
in
rain 24hr
in
rain mn
in
humidity
%
barometer
mb
20260508154502 60 271 7.0 22.0 0.02 1.28 0.02 79 993.3
20260508153002 59 273 9.0 21.0 0.02 1.28 0.02 81 993.4
20260508151602 59 264 7.0 17.0 0.01 1.28 0.01 80 993.5
20260508150155 60 243 7.0 18.0 0.00 1.27 0.00 77 993.7
20260508144554 60 280 7.0 18.0 0.00 1.28 0.00 77 993.7
20260508143057 61 278 7.0 18.0 0.00 1.28 0.00 73 994.1
20260508141601 61 255 11.0 18.0 0.00 1.28 0.00 71 994.1
20260508140046 60 267 6.0 13.0 0.00 1.30 0.00 75 994.2
20260508134544 61 243 7.0 14.0 0.00 1.30 0.00 76 994.4
20260508133041 61 284 8.0 18.0 0.00 1.30 0.00 78 994.6
20260508131550 61 257 7.0 15.0 0.00 1.30 0.00 75 994.6
20260508130040 61 302 7.0 16.0 0.00 1.33 0.00 75 994.7
20260508124538 61 271 6.0 16.0 0.00 1.33 0.00 77 994.7
20260508123035 60 245 5.0 11.0 0.00 1.33 0.00 78 994.6
20260508121532 60 272 5.0 13.0 0.01 1.33 0.00 79 994.8
20260508120029 60 278 5.0 14.0 0.01 1.36 1.33 77 994.7
20260508114527 59 261 7.0 15.0 0.02 1.36 1.33 81 994.7
20260508113026 59 300 5.0 16.0 0.02 1.36 1.33 82 994.7
20260508111525 60 219 5.0 11.0 0.01 1.35 1.32 84 994.2
20260508110024 60 275 9.0 21.0 0.01 1.37 1.32 84 994.1
20260508104521 61 281 7.0 18.0 0.00 1.36 1.31 81 994.2
20260508103022 62 243 9.0 20.0 0.00 1.36 1.31 76 994.3
20260508101518 63 262 9.0 17.0 0.00 1.36 1.31 73 994.6
20260508100016 63 1 5.0 18.0 0.00 1.39 1.31 73 995.0
20260508094515 62 254 4.0 16.0 0.00 1.39 1.31 75 995.6
20260508093012 61 293 5.0 14.0 0.00 1.39 1.31 78 995.9
20260508091514 59 248 0.0 3.0 0.00 1.39 1.31 86 996.1
20260508090010 59 248 0.0 6.0 0.00 1.39 1.31 87 996.4
20260508084508 60 250 2.0 10.0 0.02 1.39 1.31 87 996.4
20260508083006 59 283 4.0 9.0 0.04 1.39 1.31 92 996.9
20260508081509 60 226 10.0 18.0 0.13 1.39 1.31 94 996.6
20260508080005 61 271 7.0 14.0 0.21 1.40 1.31 95 996.2
20260508074504 61 318 3.0 11.0 0.30 1.39 1.30 95 996.0
20260508073101 60 308 0.0 1.0 0.35 1.36 1.28 94 996.6
20260508071603 60 43 1.0 7.0 0.32 1.27 1.18 94 996.7
20260508070059 60 314 2.0 7.0 0.30 1.23 1.10 94 997.0
20260508064558 60 336 0.0 7.0 0.23 1.12 1.00 94 997.2
20260508063104 59 92 0.0 2.0 0.21 1.05 0.92 94 997.6
20260508061555 59 78 1.0 4.0 0.20 0.98 0.86 93 997.2
20260508060053 59 106 1.0 6.0 0.20 0.94 0.80 93 997.5
20260508054552 59 70 0.0 2.0 0.20 0.91 0.76 93 997.9
20260508053100 60 122 2.0 5.0 0.20 0.85 0.71 92 998.4
20260508051546 60 67 0.0 5.0 0.21 0.80 0.66 92 998.6
20260508050043 60 150 0.0 1.0 0.25 0.76 0.61 91 999.6
20260508044540 60 129 0.0 3.0 0.22 0.72 0.56 91 1000.1
20260508043053 61 10 1.0 5.0 0.19 0.67 0.51 89 1000.4
20260508041546 61 267 0.0 5.0 0.12 0.60 0.44 88 1000.9
20260508040038 62 280 0.0 8.0 0.05 0.53 0.35 87 1001.1
20260508034534 62 267 5.0 10.0 0.04 0.51 0.34 85 1001.6
20260508033031 63 319 2.0 10.0 0.02 0.50 0.32 85 1001.8
20260508031530 63 271 3.0 7.0 0.02 0.49 0.31 85 1002.0
20260508030036 63 333 1.0 6.0 0.02 0.48 0.31 85 1002.4
20260508024528 63 42 3.0 7.0 0.01 0.47 0.30 85 1002.0
20260508023025 63 245 2.0 5.0 0.01 0.47 0.30 84 1002.4
20260508021524 64 328 3.0 8.0 0.00 0.46 0.28 81 1002.7
20260508020029 65 311 0.0 5.0 0.00 0.46 0.28 80 1003.2
20260508014520 65 267 2.0 9.0 0.00 0.46 0.28 82 1004.2
20260508013014 64 262 3.0 9.0 0.00 0.46 0.28 83 1004.6
20260508011514 64 264 5.0 13.0 0.01 0.46 0.28 83 1004.7
20260508010010 64 278 3.0 7.0 0.02 0.46 0.28 85 1005.2
20260508004513 63 252 3.0 8.0 0.02 0.46 0.28 86 1005.5
20260508003006 63 271 2.0 9.0 0.02 0.46 0.28 88 1005.9
20260508001510 63 275 2.0 9.0 0.02 0.46 0.28 88 1005.9
20260508000003 64 277 3.0 8.0 0.02 0.45 0.28 88 1006.1
20260507234503 64 323 4.0 9.0 0.02 0.44 0.27 89 1006.1
20260507233003 64 269 1.0 8.0 0.02 0.44 0.27 91 1006.2
20260507231600 64 349 1.0 4.0 0.02 0.43 0.26 92 1006.2
20260507230059 64 55 1.0 3.0 0.02 0.43 0.26 92 1006.2
20260507224602 64 40 2.0 4.0 0.02 0.43 0.25 93 1006.2
20260507223057 64 50 2.0 5.0 0.02 0.42 0.24 93 1006.3
20260507221554 64 71 0.0 2.0 0.02 0.41 0.24 93 1006.7
20260507220053 63 79 0.0 3.0 0.02 0.41 0.24 93 1006.8
20260507214553 63 248 0.0 4.0 0.03 0.40 0.23 93 1006.9
20260507213048 63 85 0.0 2.0 0.05 0.39 0.22 93 1007.3
20260507211546 63 114 0.0 2.0 0.06 0.39 0.22 93 1007.3
20260507210045 63 87 0.0 1.0 0.07 0.40 0.22 93 1007.7
20260507204550 63 330 0.0 1.0 0.06 0.38 0.20 92 1008.0
20260507203042 63 267 0.0 4.0 0.04 0.35 0.17 92 1007.9
20260507201551 63 288 1.0 6.0 0.04 0.35 0.17 92 1007.8
20260507200042 63 304 0.0 3.0 0.03 0.33 0.15 92 1007.9
20260507194541 63 312 0.0 5.0 0.02 0.32 0.14 92 1007.7
20260507193042 62 276 0.0 5.0 0.02 0.31 0.13 92 1007.7
20260507191540 62 64 1.0 5.0 0.00 0.30 0.12 92 1007.7
20260507190039 62 42 1.0 5.0 0.01 0.30 0.12 92 1007.5
20260507184537 62 82 0.0 3.0 0.02 0.30 0.12 92 1007.8
20260507183037 62 53 0.0 0.0 0.02 0.30 0.12 92 1007.9
20260507181535 62 70 0.0 2.0 0.02 0.30 0.12 92 1007.8
20260507180037 63 293 0.0 3.0 0.02 0.28 0.11 91 1008.1
20260507174540 63 241 1.0 4.0 0.02 0.28 0.10 91 1008.1
20260507173035 62 241 1.0 4.0 0.02 0.28 0.10 92 1008.1
20260507171535 62 296 0.0 0.0 0.01 0.28 0.09 91 1008.3
20260507170040 62 301 0.0 3.0 0.02 0.28 0.09 91 1008.3
20260507164527 62 244 1.0 6.0 0.02 0.27 0.09 91 1008.3
20260507163026 63 284 0.0 6.0 0.02 0.27 0.09 91 1008.4
20260507161524 63 260 3.0 8.0 0.02 0.27 0.09 93 1008.4
20260507160023 61 227 0.0 3.0 0.02 0.26 0.08 93 1008.6